Burlington, WA

6:13 PM PDT on July 27, 2017 (GMT -0700)
Skagit Regional

Weather History for KBVS - March, 2012

Change the Weather History Date:

Monday, March 26, 2012

  Actual Average Record
Temperature  
Mean Temperature 48 °F -  
Max Temperature 51 °F 53 °F 65 °F (1966)
Min Temperature 44 °F 38 °F 30 °F (1966)
Degree Days  
Heating Degree Days 18    
Moisture  
Dew Point 43 °F    
Average Humidity 86    
Maximum Humidity 100    
Minimum Humidity 66    
Precipitation  
Precipitation 0.04 in - - ()
Sea Level Pressure  
Sea Level Pressure 29.78 in    
Wind  
Wind Speed 6 mph (SSE)    
Max Wind Speed 14 mph    
Max Gust Speed 18 mph    
Visibility 9 miles    
Events      
Averages and records for this station are not official NWS values.
T = Trace of Precipitation, MM = Missing Value Source: NWS Daily Summary

Daily Weather History Graph

Daily Weather History Graph

Search for Another Location

Airport or City:

Trip Planner

Search our weather history database for the weather conditions in past years. The results will help you decide how hot, cold, wet, or windy it might be!

Date:

Astronomy

Mar. 26, 2012 Rise Set
Actual Time 6:58 AM PDT 7:32 PM PDT
Civil Twilight 6:27 AM PDT 8:03 PM PDT
Nautical Twilight 5:50 AM PDT 8:41 PM PDT
Astronomical Twilight 5:11 AM PDT 9:20 PM PDT
Moon 8:30 AM PDT (3/26) No Moon Set
Length of Visible Light 13h 36m
Length of Day
12h 33m
Waxing Crescent, 15% of the Moon is Illuminated
Mar 26
Waxing Crescent
Mar 30
First Quarter
Apr 6
Full
Apr 13
Last Quarter
Apr 21
New

Hourly Weather History & Observations

Time (PDT) Temp. Windchill Dew Point Humidity Pressure Visibility Wind Dir Wind Speed Gust Speed Precip Events Conditions
12:15 AM 44.6 °F - 41.0 °F 87% 29.71 in 10.0 mi Calm Calm - 0.00 in   Mostly Cloudy
12:35 AM 46.4 °F 45.2 °F 39.2 °F 76% 29.72 in 10.0 mi NW 3.5 mph - 0.00 in   Overcast
12:55 AM 46.4 °F - 41.0 °F 81% 29.72 in 10.0 mi Calm Calm - 0.00 in   Overcast
1:15 AM 46.4 °F - 41.0 °F 81% 29.73 in 10.0 mi Calm Calm - 0.00 in   Overcast
1:55 AM 48.2 °F - 42.8 °F 82% 29.74 in 9.0 mi SSE 5.8 mph - 0.00 in   Overcast
2:15 AM 48.2 °F - 44.6 °F 87% 29.74 in 9.0 mi South 5.8 mph - 0.00 in   Overcast
2:35 AM 48.2 °F - 44.6 °F 87% 29.75 in 8.0 mi SSE 8.1 mph - 0.00 in   Overcast
2:55 AM 48.2 °F - 46.4 °F 93% 29.75 in 6.0 mi South 6.9 mph - 0.00 in   Overcast
3:15 AM 46.4 °F 43.5 °F 46.4 °F 100% 29.74 in 8.0 mi South 5.8 mph - 0.00 in   Overcast
3:35 AM 46.4 °F 42.4 °F 46.4 °F 100% 29.74 in 7.0 mi SSE 8.1 mph - 0.00 in   Overcast
3:55 AM 46.4 °F 43.5 °F 46.4 °F 100% 29.74 in 7.0 mi SSE 5.8 mph - 0.00 in   Overcast
4:15 AM 46.4 °F 42.4 °F 46.4 °F 100% 29.74 in 9.0 mi SSE 8.1 mph - 0.00 in   Overcast
4:35 AM 46.4 °F 42.4 °F 46.4 °F 100% 29.74 in 7.0 mi South 8.1 mph - 0.00 in   Overcast
4:55 AM 46.4 °F 42.9 °F 46.4 °F 100% 29.75 in 8.0 mi South 6.9 mph - 0.00 in   Overcast
5:15 AM 46.4 °F 41.9 °F 46.4 °F 100% 29.75 in 6.0 mi SSE 9.2 mph - 0.00 in   Overcast
5:35 AM 46.4 °F 43.5 °F 46.4 °F 100% 29.75 in 5.0 mi South 5.8 mph - 0.01 in   Overcast
5:55 AM 46.4 °F 42.9 °F 46.4 °F 100% 29.75 in 5.0 mi SSE 6.9 mph - 0.02 in   Overcast
6:15 AM 46.4 °F 42.9 °F 46.4 °F 100% 29.76 in 6.0 mi SSE 6.9 mph - 0.00 in   Overcast
6:35 AM 46.4 °F 43.5 °F 46.4 °F 100% 29.76 in 5.0 mi South 5.8 mph - 0.01 in   Overcast
6:55 AM 44.6 °F 41.4 °F 44.6 °F 100% 29.76 in 8.0 mi South 5.8 mph - 0.02 in   Overcast
7:15 AM 44.6 °F 43.1 °F 44.6 °F 100% 29.77 in 8.0 mi South 3.5 mph - 0.00 in   Overcast
7:35 AM 44.6 °F 40.7 °F 44.6 °F 100% 29.78 in 10.0 mi South 6.9 mph - 0.00 in   Overcast
7:55 AM 44.6 °F 40.7 °F 44.6 °F 100% 29.78 in 7.0 mi South 6.9 mph - 0.00 in   Overcast
8:35 AM 44.6 °F 40.2 °F 44.6 °F 100% 29.79 in 7.0 mi SSE 8.1 mph - 0.00 in   Overcast
8:55 AM 44.6 °F 41.4 °F 44.6 °F 100% 29.79 in 5.0 mi South 5.8 mph - 0.00 in   Overcast
9:15 AM 44.6 °F 40.2 °F 44.6 °F 100% 29.79 in 8.0 mi South 8.1 mph - 0.00 in   Overcast
9:55 AM 44.6 °F 40.2 °F 44.6 °F 100% 29.80 in 9.0 mi SSE 8.1 mph - 0.00 in   Overcast
10:15 AM 44.6 °F 39.2 °F 44.6 °F 100% 29.80 in 10.0 mi South 10.4 mph - 0.00 in   Overcast
10:35 AM 46.4 °F 42.4 °F 42.8 °F 87% 29.80 in 9.0 mi South 8.1 mph - 0.00 in   Overcast
10:55 AM 46.4 °F 42.9 °F 42.8 °F 87% 29.81 in 10.0 mi SSE 6.9 mph - 0.00 in   Overcast
11:15 AM 46.4 °F 41.5 °F 42.8 °F 87% 29.81 in 10.0 mi SSE 10.4 mph - 0.00 in   Overcast
11:35 AM 46.4 °F 42.4 °F 42.8 °F 87% 29.81 in 10.0 mi South 8.1 mph - 0.00 in   Overcast
11:55 AM 46.4 °F 42.9 °F 42.8 °F 87% 29.81 in 9.0 mi SSE 6.9 mph - 0.00 in   Overcast
12:15 PM 46.4 °F 42.4 °F 44.6 °F 93% 29.82 in 10.0 mi SSE 8.1 mph - 0.00 in   Overcast
12:35 PM 48.2 °F - 42.8 °F 82% 29.81 in 9.0 mi SSE 9.2 mph - 0.00 in   Overcast
12:55 PM 48.2 °F - 44.6 °F 87% 29.81 in 10.0 mi SE 11.5 mph 17.3 mph 0.00 in   Overcast
1:15 PM 48.2 °F - 42.8 °F 82% 29.81 in 10.0 mi SE 9.2 mph - 0.00 in   Overcast
1:35 PM 48.2 °F - 42.8 °F 82% 29.81 in 10.0 mi SE 12.7 mph - 0.00 in   Overcast
1:55 PM 51.8 °F - 44.6 °F 76% 29.81 in 9.0 mi SSE 12.7 mph - 0.00 in   Overcast
2:15 PM 48.2 °F - 42.8 °F 82% 29.81 in 9.0 mi SSE 9.2 mph - 0.00 in   Overcast
2:35 PM 50.0 °F - 42.8 °F 76% 29.81 in 10.0 mi SSE 10.4 mph 16.1 mph 0.00 in   Overcast
2:55 PM 51.8 °F - 42.8 °F 71% 29.80 in 9.0 mi SE 10.4 mph 18.4 mph 0.00 in   Overcast
3:15 PM 51.8 °F - 42.8 °F 71% 29.81 in 10.0 mi South 12.7 mph 18.4 mph 0.00 in   Overcast
3:35 PM 51.8 °F - 42.8 °F 71% 29.81 in 9.0 mi SE 12.7 mph - 0.00 in   Overcast
3:55 PM 51.8 °F - 42.8 °F 71% 29.81 in 8.0 mi SE 12.7 mph 18.4 mph 0.00 in   Overcast
4:15 PM 51.8 °F - 42.8 °F 71% 29.81 in 9.0 mi SE 13.8 mph 17.3 mph 0.00 in   Overcast
4:35 PM 51.8 °F - 42.8 °F 71% 29.81 in 10.0 mi SSE 13.8 mph - 0.00 in   Overcast
4:55 PM 51.8 °F - 42.8 °F 71% 29.81 in 9.0 mi SSE 12.7 mph 16.1 mph 0.00 in   Overcast
5:15 PM 51.8 °F - 41.0 °F 67% 29.81 in 9.0 mi SSE 10.4 mph 17.3 mph 0.00 in   Overcast
5:35 PM 51.8 °F - 41.0 °F 67% 29.82 in 8.0 mi SE 9.2 mph - 0.00 in   Overcast
5:55 PM 51.8 °F - 41.0 °F 67% 29.82 in 9.0 mi ESE 10.4 mph - 0.00 in   Mostly Cloudy
6:15 PM 50.0 °F - 41.0 °F 71% 29.82 in 9.0 mi ESE 5.8 mph - 0.00 in   Scattered Clouds
6:35 PM 50.0 °F - 41.0 °F 71% 29.82 in 9.0 mi ESE 8.1 mph - 0.00 in   Partly Cloudy
6:55 PM 50.0 °F - 39.2 °F 66% 29.81 in 9.0 mi ESE 6.9 mph - 0.00 in   Scattered Clouds
7:15 PM 48.2 °F - 39.2 °F 71% 29.80 in 10.0 mi East 8.1 mph - 0.00 in   Partly Cloudy
7:35 PM 46.4 °F 42.4 °F 39.2 °F 76% 29.80 in 9.0 mi East 8.1 mph - 0.00 in   Clear
7:55 PM 46.4 °F 42.4 °F 41.0 °F 81% 29.79 in 10.0 mi ENE 8.1 mph - 0.00 in   Clear
8:15 PM 44.6 °F 39.7 °F 41.0 °F 87% 29.78 in 10.0 mi ENE 9.2 mph - 0.00 in   Clear
8:55 PM 46.4 °F 42.4 °F 41.0 °F 81% 29.78 in 10.0 mi ENE 8.1 mph - 0.00 in   Clear
9:15 PM 46.4 °F 41.9 °F 41.0 °F 81% 29.78 in 10.0 mi ENE 9.2 mph - 0.00 in   Clear
9:35 PM 44.6 °F 39.2 °F 39.2 °F 81% 29.77 in 10.0 mi ENE 10.4 mph - 0.00 in   Clear
9:55 PM 44.6 °F 39.7 °F 41.0 °F 87% 29.77 in 10.0 mi ENE 9.2 mph - 0.00 in   Clear
10:15 PM 44.6 °F 39.2 °F 41.0 °F 87% 29.76 in 10.0 mi ENE 10.4 mph - 0.00 in   Clear
10:35 PM 44.6 °F 39.7 °F 41.0 °F 87% 29.76 in 10.0 mi ENE 9.2 mph - 0.00 in   Clear
10:55 PM 44.6 °F 38.8 °F 41.0 °F 87% 29.75 in 10.0 mi ENE 11.5 mph - 0.00 in   Clear
11:15 PM 44.6 °F 39.2 °F 39.2 °F 81% 29.75 in 10.0 mi East 10.4 mph - 0.00 in   Clear
11:35 PM 44.6 °F 38.8 °F 39.2 °F 81% 29.75 in 10.0 mi East 11.5 mph 16.1 mph 0.00 in   Clear
11:55 PM 42.8 °F 36.6 °F 39.2 °F 87% 29.74 in 10.0 mi ENE 11.5 mph - 0.00 in   Clear